TimeCST,TemperatureF,Dew PointF,Humidity,Sea Level PressureIn,VisibilityMPH,Wind Direction,Wind SpeedMPH,Gust SpeedMPH,PrecipitationIn,Events,Conditions,WindDirDegrees,DateUTC
12:25 AM,1.4,-4.0,78,30.56,10.0,NW,8.1,-,N/A,,Mostly Cloudy,310,2013-12-07 06:25:00
12:48 AM,1.4,-4.0,78,30.56,10.0,NW,6.9,-,N/A,,Overcast,310,2013-12-07 06:48:00
12:52 AM,-0.4,-4.0,85,30.56,10.0,NW,8.1,-,N/A,,Overcast,310,2013-12-07 06:52:00
12:53 AM,-0.4,-4.0,85,30.56,10.0,NW,8.1,-,N/A,Snow,Light Snow,310,2013-12-07 06:53:00
12:58 AM,0.5,-4.5,79,30.64,10.0,WNW,10.4,-,0.00,Snow,Light Snow,290,2013-12-07 06:58:00
1:03 AM,-0.4,-5.8,78,30.56,10.0,WNW,8.1,-,N/A,Snow,Light Snow,290,2013-12-07 07:03:00
1:04 AM,-0.4,-5.8,78,30.56,10.0,WNW,6.9,-,N/A,,Mostly Cloudy,300,2013-12-07 07:04:00
1:09 AM,-0.4,-5.8,78,30.56,10.0,WNW,6.9,-,N/A,,Mostly Cloudy,300,2013-12-07 07:09:00
1:14 AM,-0.4,-5.8,78,30.56,10.0,WNW,9.2,-,N/A,,Scattered Clouds,290,2013-12-07 07:14:00
1:58 AM,-1.5,-6.7,78,30.66,10.0,NW,5.8,-,0.00,,Clear,310,2013-12-07 07:58:00
2:07 AM,-2.2,-7.6,78,30.58,10.0,WNW,6.9,-,N/A,,Partly Cloudy,300,2013-12-07 08:07:00
2:27 AM,-4.0,-7.6,85,30.58,10.0,WNW,5.8,-,N/A,,Mostly Cloudy,290,2013-12-07 08:27:00
2:52 AM,-4.0,-7.6,85,30.59,10.0,WNW,6.9,-,N/A,,Scattered Clouds,290,2013-12-07 08:52:00
2:58 AM,-3.8,-8.3,81,30.67,10.0,West,6.9,-,N/A,,Scattered Clouds,280,2013-12-07 08:58:00
3:58 AM,-5.4,-9.6,82,30.69,10.0,West,4.6,-,N/A,,Clear,270,2013-12-07 09:58:00
4:58 AM,-4.9,-9.4,81,30.69,10.0,WNW,5.8,-,N/A,,Clear,290,2013-12-07 10:58:00
5:58 AM,-5.3,-9.8,81,30.71,10.0,West,5.8,-,N/A,,Clear,280,2013-12-07 11:58:00
6:58 AM,-6.0,-10.3,82,30.73,10.0,West,6.9,-,N/A,,Clear,270,2013-12-07 12:58:00
7:58 AM,-4.0,-9.4,78,30.74,10.0,West,5.8,-,N/A,,Partly Cloudy,270,2013-12-07 13:58:00
8:58 AM,-0.4,-5.8,78,30.75,10.0,West,5.8,-,N/A,,Partly Cloudy,280,2013-12-07 14:58:00
9:58 AM,1.4,-4.0,78,30.76,10.0,West,8.1,-,N/A,,Partly Cloudy,260,2013-12-07 15:58:00
10:58 AM,5.0,-4.0,66,30.76,10.0,Variable,6.9,-,N/A,,Partly Cloudy,0,2013-12-07 16:58:00
11:58 AM,8.6,-4.0,57,30.73,10.0,West,9.2,-,N/A,,Partly Cloudy,270,2013-12-07 17:58:00
12:58 PM,8.6,-4.0,57,30.71,10.0,West,8.1,-,N/A,,Scattered Clouds,280,2013-12-07 18:58:00
1:58 PM,10.4,-5.8,48,30.69,10.0,WSW,8.1,-,N/A,,Partly Cloudy,250,2013-12-07 19:58:00
2:58 PM,10.4,-5.8,48,30.70,10.0,WNW,8.1,-,N/A,,Partly Cloudy,290,2013-12-07 20:58:00
3:58 PM,8.6,-5.6,53,30.70,10.0,West,8.1,-,N/A,,Clear,280,2013-12-07 21:58:00
4:58 PM,3.0,-7.4,62,30.69,10.0,WNW,6.9,-,N/A,,Clear,300,2013-12-07 22:58:00
5:58 PM,3.6,-5.6,66,30.68,10.0,Calm,Calm,-,N/A,,Clear,0,2013-12-07 23:58:00
6:58 PM,-0.9,-4.4,85,30.66,10.0,North,1.2,-,N/A,,Clear,360,2013-12-08 00:58:00
7:58 PM,-0.8,-6.2,78,30.68,10.0,Calm,Calm,-,N/A,,Clear,0,2013-12-08 01:58:00
8:58 PM,-2.0,-6.0,83,30.66,10.0,Calm,Calm,-,N/A,,Clear,0,2013-12-08 02:58:00
9:58 PM,-1.3,-5.3,83,30.65,10.0,Calm,Calm,-,N/A,,Clear,0,2013-12-08 03:58:00
10:58 PM,-2.2,-6.0,84,30.65,10.0,Calm,Calm,-,N/A,,Clear,0,2013-12-08 04:58:00
11:58 PM,-0.0,-3.6,85,30.66,10.0,North,1.2,-,N/A,,Mostly Cloudy,10,2013-12-08 05:58:00